This demonstration page uses our WeatherBlox Daily Observations layout. Learn more.

41.55636, -103.73856

Hourly Observations for May 26, 2018

Temp ( °F °C ) Dew Point ( °F °C ) Humidity (%) Winds ( mph kmh ) Pressure ( in mb ) Visibility ( mi km ) Precip ( " mm )
12:58 am 00:58 Clear 58 14.6 47 8.4 67 67 SE 9 15 29.85 1011 10 16.0934 N/A
1:58 am 01:58 Clear 56 13.5 48 8.7 73 73 SE 9 15 29.82 1010 10 16.0934 N/A
2:58 am 02:58 Clear 56 13.6 47 8.5 72 72 SSW 5 7 29.8 1009 10 16.0934 N/A
3:58 am 03:58 Clear 58 14.6 46 7.9 64 64 S 7 11 29.79 1009 10 16.0934 N/A
4:58 am 04:58 Clear 56 13.4 47 8.2 71 71 S 7 11 29.8 1009 10 16.0934 N/A
5:58 am 05:58 Sunny 57 13.7 47 8.4 71 71 S 8 13 29.8 1009 10 16.0934 N/A
6:58 am 06:58 Sunny 62 16.4 51 10.5 68 68 S 9 15 29.81 1010 10 16.0934 N/A
7:58 am 07:58 Sunny 68 19.8 52 11.3 58 58 SSW 12 19 29.81 1010 10 16.0934 N/A
8:58 am 08:58 Sunny 74 23.2 52 11.2 47 47 S 14 22 29.8 1009 10 16.0934 N/A
9:58 am 09:58 Sunny 78 25.4 52 10.9 40 40 SSW 13 20 29.79 1009 10 16.0934 N/A
10:58 am 10:58 Sunny 81 27.2 49 9.7 33 33 SW 12 19 29.77 1008 10 16.0934 N/A
11:58 am 11:58 Sunny 83 28.5 50 10.1 32 32 SE 9 15 29.75 1008 10 16.0934 N/A
12:58 pm 12:58 Sunny 85 29.2 47 8.6 28 28 SE 12 19 29.74 1007 10 16.0934 N/A
1:58 pm 13:58 Sunny 85 29.5 44 6.5 23 23 SE 14 22 29.73 1007 10 16.0934 N/A
2:58 pm 14:58 Sunny 85 29.6 46 7.6 25 25 S 9 15 29.71 1006 10 16.0934 N/A
3:58 pm 15:58 Sunny 85 29.7 49 9.4 28 28 SSE 14 22 29.67 1005 10 16.0934 N/A
4:58 pm 16:58 Sunny 85 29.2 46 7.9 26 26 S 14 22 29.67 1005 10 16.0934 N/A
5:58 pm 17:58 Sunny 83 28.3 54 12.2 37 37 S 7 11 29.65 1004 10 16.0934 N/A
6:58 pm 18:58 Sunny 77 25.2 51 10.3 39 39 SSE 13 20 29.65 1004 10 16.0934 N/A
7:58 pm 19:58 Sunny 74 23.3 46 7.9 37 37 SE 16 26 29.65 1004 10 16.0934 N/A
8:58 pm 20:58 Partly Cloudy 71 21.9 46 7.5 40 40 SE 15 24 29.65 1004 10 16.0934 N/A
9:58 pm 21:58 Mostly Clear 69 20.6 46 7.6 43 43 SE 12 19 29.66 1004 10 16.0934 N/A
10:58 pm 22:58 Partly Cloudy 71 21.4 43 6 37 37 SSE 15 24 29.65 1004 10 16.0934 N/A
11:58 pm 23:58 Mostly Cloudy 69 20.5 43 6 39 39 SSE 17 28 29.64 1004 10 16.0934 N/A

Powered by AerisWeather